Regional Weather Roundup
Issued by NWS Charleston, WV

Home | Current Version | Previous Version | Text Only | Print | Product List | Glossary Off
Versions: 1 2 3 4 5 6 7 8 9 10 11 12 13 14 15 16 17 18 19 20 21 22 23 24 25 26 27 28 29 30 31 32 33 34 35 36 37 38 39 40 41 42 43 44 45 46 47 48 49 50

000
ASUS41 KRLX 251710
RWRRLX
West Virginia Regional Weather Roundup
National Weather Service Charleston WV
Issued by National Weather Service Pittsburgh PA
100 PM EDT THU AUG 25 2016

Note: "fair" indicates few or no clouds below 12,000 feet with no
significant weather and/or obstructions to visibility.

WVZ003-251800-
Northern Panhandle of West Virginia

CITY           SKY/WX    TMP DP  RH WIND       PRES   REMARKS
WHEELING       PTSUNNY   84  72  67 SW9       30.09S HX  89
$$

WVZ009-251800-
Northwest West Virginia

CITY           SKY/WX    TMP DP  RH WIND       PRES   REMARKS
PARKERSBURG    CLOUDY    85  74  69 SW7       30.12S HX  92
$$

WVZ006-251800-
Western West Virginia

CITY           SKY/WX    TMP DP  RH WIND       PRES   REMARKS
HUNTINGTON     MOSUNNY   88  73  61 SW12      30.12S HX  95
$$

WVZ015-251800-
West Central West Virginia

CITY           SKY/WX    TMP DP  RH WIND       PRES   REMARKS
CHARLESTON     CLOUDY    85  73  67 VRB5      30.13F HX  91
$$

WVZ031-251800-
North Central West Virginia

CITY           SKY/WX    TMP DP  RH WIND       PRES   REMARKS
CLARKSBURG     CLOUDY    80  73  79 SW8       30.12F HX  84
MORGANTOWN     CLOUDY    80  71  74 VRB3      30.13S HX  84
$$

WVZ035-042-251800-
South Central West Virginia

CITY           SKY/WX    TMP DP  RH WIND       PRES   REMARKS
BECKLEY        CLOUDY    79  70  74 W8        30.24F HX  82
BLUEFIELD      PTSUNNY   77  68  73 VRB5      30.27F
$$

WVZ045-251800-
Greenbrier Valley of West Virginia

CITY           SKY/WX    TMP DP  RH WIND       PRES   REMARKS
LEWISBURG      MOSUNNY   80  69  69 SW9       30.21F HX  83
$$

WVZ047-251800-
Northern Mountains of West Virginia

CITY           SKY/WX    TMP DP  RH WIND       PRES   REMARKS
ELKINS         PTSUNNY   79  70  74 CALM      30.18F HX  82
$$

WVZ052-251800-
Eastern Panhandle of West Virginia

CITY           SKY/WX    TMP DP  RH WIND       PRES   REMARKS
MARTINSBURG    MOSUNNY   87  72  60 SW8       30.06F HX  93
PETERSBURG     CLOUDY    84  75  74 CALM      30.10F HX  92
$$



USA.gov is the U.S. government's official web portal to all federal, state and local government web resources and services.